FW9176 Weather Reports


time (UTC)temp
F
wind
direction
speed
knots
gust
knots
rain 1hr
in
rain 24hr
in
rain mn
in
humidity
%
barometer
mb
20260831044601 75 145 0.9 5.2 0.00 0.19 0.19 81 1011.9
20260831043101 75 224 0.9 4.3 0.00 0.19 0.19 81 1011.9
20260831041606 74 157 0.9 3.5 0.01 0.19 0.19 81 1011.9
20260831040107 74 0 1.7 5.2 0.02 0.19 0.19 84 1012.0
20260831034613 74 188 0.9 4.3 0.02 0.19 0.19 85 1012.3
20260831033106 74 174 0.0 4.3 0.02 0.19 0.19 86 1012.9
20260831031605 74 0 0.0 2.6 0.01 0.18 0.18 85 1013.6
20260831030128 74 152 0.9 4.3 0.00 0.17 0.17 86 1013.4
20260831024605 74 0 0.0 0.0 0.00 0.17 0.17 86 1013.4
20260831023123 74 0 0.0 1.7 0.00 0.17 0.17 87 1013.5
20260831021606 74 171 0.0 1.7 0.00 0.17 0.17 88 1013.3
20260831020105 73 0 0.0 0.0 0.00 0.17 0.17 88 1013.4
20260831014626 74 0 0.0 0.0 0.00 0.17 0.17 88 1013.3
20260831013104 74 0 0.0 0.9 0.00 0.17 0.17 88 1013.3
20260831011609 74 0 0.0 0.9 0.00 0.17 0.17 87 1013.0
20260831010109 74 0 0.0 0.9 0.00 0.17 0.17 87 1012.8
20260831004604 74 0 0.0 2.6 0.01 0.17 0.17 87 1012.5
20260831003101 74 160 0.0 1.7 0.01 0.17 0.17 87 1012.6
20260831001630 74 0 0.0 0.9 0.02 0.17 0.17 87 1013.0
20260831000105 74 0 0.0 0.9 0.02 0.17 0.17 86 1013.3
20260830234603 74 0 0.0 0.0 0.01 0.16 0.16 86 1013.6
20260830233116 74 0 0.0 0.9 0.01 0.16 0.16 86 1013.4
20260830231609 74 0 0.0 0.9 0.00 0.15 0.15 85 1013.7
20260830230120 74 0 0.0 0.0 0.01 0.15 0.15 85 1014.1
20260830224606 74 0 0.0 0.0 0.01 0.15 0.15 85 1014.2
20260830223103 74 0 0.0 0.0 0.01 0.15 0.15 84 1013.8
20260830221604 74 0 0.0 0.0 0.01 0.15 0.15 84 1013.8
20260830220107 74 0 0.0 0.0 0.00 0.14 0.14 83 1013.7
20260830214559 74 160 0.0 1.7 0.00 0.14 0.14 83 1014.0
20260830213105 74 0 0.0 2.6 0.01 0.14 0.14 82 1013.9
20260830211601 74 158 0.0 2.6 0.03 0.14 0.14 83 1014.2
20260830210106 74 167 0.0 2.6 0.04 0.14 0.14 82 1014.2
20260830204605 74 143 0.0 3.5 0.04 0.14 0.14 81 1014.0
20260830203103 75 158 0.9 5.2 0.03 0.13 0.13 78 1014.2
20260830201600 76 205 0.9 3.5 0.01 0.11 0.11 76 1014.2
20260830200057 76 0 0.0 0.0 0.00 0.10 0.10 73 1014.3
20260830194611 77 0 0.0 1.7 0.00 0.10 0.10 71 1014.2
20260830193102 79 290 0.0 1.7 0.00 0.10 0.10 68 1014.3
20260830191607 80 0 0.0 2.6 0.00 0.10 0.10 66 1013.9
20260830190106 80 0 0.0 4.3 0.00 0.10 0.10 64 1013.7
20260830184600 81 189 0.0 3.5 0.00 0.10 0.10 62 1013.4
20260830183106 81 0 0.0 7.8 0.00 0.10 0.10 63 1012.8
20260830181602 81 138 1.7 6.1 0.00 0.10 0.10 62 1012.8
20260830180106 81 107 0.9 7.0 0.00 0.10 0.10 61 1012.8
20260830174615 81 143 1.7 7.8 0.00 0.10 0.10 62 1013.0
20260830173103 79 184 0.9 8.7 0.00 0.10 0.10 63 1013.4
20260830171607 78 0 0.0 7.8 0.00 0.10 0.10 66 1013.5
20260830164601 78 160 1.7 7.0 0.00 0.10 0.10 65 1013.3
20260830163109 77 135 2.6 9.6 0.00 0.10 0.10 68 1013.3
20260830161606 76 205 1.7 8.7 0.00 0.10 0.10 71 1013.4
20260830160115 75 0 1.7 9.6 0.00 0.10 0.10 74 1013.4
20260830154601 73 188 1.7 7.0 0.00 0.10 0.10 76 1013.3
20260830153108 72 143 0.9 7.0 0.00 0.10 0.10 80 1013.2
20260830151604 71 133 0.9 9.6 0.00 0.10 0.10 81 1013.1
20260830150111 70 139 0.9 5.2 0.00 0.10 0.10 85 1013.3
20260830144606 69 75 0.9 4.3 0.00 0.10 0.10 85 1013.3
20260830143107 69 148 0.9 6.1 0.01 0.10 0.10 86 1013.6
20260830141606 68 186 0.9 4.3 0.01 0.10 0.10 87 1013.4
20260830140107 68 178 0.9 4.3 0.02 0.10 0.10 87 1013.7
20260830134607 67 0 1.7 6.1 0.04 0.10 0.10 87 1013.8
20260830133059 67 183 0.9 4.3 0.04 0.09 0.09 87 1014.4
20260830131607 67 0 0.9 4.3 0.06 0.09 0.09 87 1014.1
20260830130109 68 176 0.9 3.5 0.06 0.08 0.08 86 1014.5
20260830124605 68 0 0.0 3.5 0.04 0.06 0.06 86 1014.7
20260830123059 68 153 0.0 2.6 0.02 0.04 0.04 85 1014.6
20260830121607 68 156 0.0 1.7 0.01 0.03 0.03 83 1014.6
20260830120104 68 0 0.0 3.5 0.02 0.02 0.02 82 1014.2
20260830114612 69 0 0.0 1.7 0.02 0.02 0.02 81 1013.9
20260830113100 69 0 0.0 3.5 0.02 0.02 0.02 80 1013.8
20260830111600 70 0 0.0 2.6 0.02 0.02 0.02 78 1013.5
20260830104606 71 173 0.9 4.3 0.00 0.00 0.00 74 1012.8
20260830103103 72 0 0.0 6.1 0.00 0.00 0.00 73 1012.8
20260830101602 71 139 1.7 5.2 0.00 0.00 0.00 73 1012.7
20260830094605 71 167 0.9 5.2 0.00 0.00 0.00 73 1012.9
20260830093101 72 155 1.7 5.2 0.00 0.00 0.00 72 1012.7
20260830091600 72 157 1.7 5.2 0.00 0.00 0.00 71 1012.8
20260830090113 72 134 1.7 6.1 0.00 0.00 0.00 70 1012.9
20260830084603 72 0 0.9 5.2 0.00 0.00 0.00 70 1013.0
20260830083101 73 136 0.9 3.5 0.00 0.00 0.00 69 1013.2
20260830081605 73 172 0.9 7.0 0.00 0.00 0.00 68 1013.3
20260830080104 73 0 0.0 4.3 0.00 0.00 0.00 68 1013.2
20260830074605 73 156 0.9 4.3 0.00 0.00 0.00 67 1013.3
20260830073103 73 0 0.0 2.6 0.00 0.00 0.00 67 1013.4
20260830071604 73 161 0.9 4.3 0.00 0.00 0.00 67 1013.3
20260830070113 73 133 0.9 7.0 0.00 0.00 0.00 67 1013.5
20260830064603 73 192 1.7 6.1 0.00 0.00 0.00 68 1013.5
20260830063115 74 172 0.9 5.2 0.00 0.00 0.00 68 1013.7
20260830061607 74 195 1.7 6.1 0.00 0.00 0.00 66 1013.9
20260830060107 74 131 0.9 5.2 0.00 0.00 0.00 67 1013.9
20260830054604 74 129 0.9 4.3 0.00 0.00 0.00 67 1013.9
20260830053101 74 201 1.7 6.1 0.00 0.00 0.00 68 1013.7
20260830051613 74 214 0.9 6.1 0.00 0.00 0.00 68 1013.8
20260830050100 73 119 1.7 5.2 0.00 0.00 0.00 69 1013.8